TimeCST,TemperatureF,Dew PointF,Humidity,Sea Level PressureIn,VisibilityMPH,Wind Direction,Wind SpeedMPH,Gust SpeedMPH,PrecipitationIn,Events,Conditions,WindDirDegrees,DateUTC
12:14 AM,17.6,15.8,93,29.86,2.0,South,26.5,-,N/A,,Overcast,180,2013-02-17 06:14:00
12:34 AM,17.6,15.8,93,29.85,2.0,South,24.2,28.8,N/A,,Overcast,170,2013-02-17 06:34:00
12:54 AM,17.6,15.8,93,29.85,2.0,South,24.2,-,N/A,,Overcast,170,2013-02-17 06:54:00
1:14 AM,17.6,15.8,93,29.84,3.0,South,20.7,-,N/A,,Overcast,170,2013-02-17 07:14:00
1:33 AM,17.6,15.8,93,29.83,3.0,South,24.2,29.9,N/A,,Overcast,170,2013-02-17 07:33:00
1:54 AM,17.6,15.8,93,29.82,3.0,South,23.0,-,N/A,,Overcast,170,2013-02-17 07:54:00
2:14 AM,17.6,15.8,93,29.82,3.0,South,21.9,26.5,N/A,,Overcast,170,2013-02-17 08:14:00
2:33 AM,17.6,15.8,93,29.81,3.0,South,23.0,28.8,N/A,,Overcast,170,2013-02-17 08:33:00
2:54 AM,17.6,15.8,93,29.80,3.0,South,25.3,-,N/A,,Overcast,170,2013-02-17 08:54:00
3:14 AM,17.6,15.8,93,29.78,3.0,South,23.0,29.9,N/A,,Overcast,170,2013-02-17 09:14:00
3:33 AM,17.6,15.8,93,29.76,3.0,South,25.3,28.8,N/A,,Overcast,170,2013-02-17 09:33:00
3:54 AM,17.6,15.8,93,29.75,3.0,South,24.2,27.6,N/A,,Overcast,170,2013-02-17 09:54:00
4:14 AM,17.6,15.8,93,29.74,3.0,South,25.3,-,N/A,,Overcast,170,2013-02-17 10:14:00
4:33 AM,17.6,15.8,93,29.74,2.0,South,25.3,-,N/A,,Overcast,170,2013-02-17 10:33:00
4:54 AM,17.6,15.8,93,29.73,2.0,South,25.3,-,N/A,,Overcast,170,2013-02-17 10:54:00
5:14 AM,17.6,15.8,93,29.72,1.8,South,24.2,31.1,N/A,,Overcast,170,2013-02-17 11:14:00
5:33 AM,17.6,15.8,93,29.71,1.8,South,24.2,-,N/A,,Overcast,170,2013-02-17 11:33:00
5:54 AM,17.6,15.8,93,29.70,1.5,South,24.2,-,N/A,,Overcast,170,2013-02-17 11:54:00
6:14 AM,17.6,17.6,100,29.69,2.0,South,21.9,-,N/A,,Overcast,170,2013-02-17 12:14:00
6:33 AM,19.4,17.6,93,29.67,1.5,South,28.8,-,N/A,,Overcast,170,2013-02-17 12:33:00
6:54 AM,19.4,17.6,93,29.66,1.5,South,26.5,-,N/A,,Overcast,170,2013-02-17 12:54:00
7:14 AM,21.2,19.4,93,29.64,1.8,South,27.6,-,N/A,,Overcast,170,2013-02-17 13:14:00
7:33 AM,21.2,21.2,100,29.64,1.0,South,25.3,32.2,N/A,,Overcast,170,2013-02-17 13:33:00
7:54 AM,21.2,21.2,100,29.62,1.0,South,24.2,31.1,N/A,,Overcast,170,2013-02-17 13:54:00
8:13 AM,23.0,21.2,93,29.61,0.8,South,27.6,34.5,N/A,,Overcast,170,2013-02-17 14:13:00
8:34 AM,23.0,21.2,93,29.60,0.8,South,29.9,35.7,N/A,Snow,Light Snow,170,2013-02-17 14:34:00
8:54 AM,23.0,21.2,93,29.59,0.8,South,27.6,-,N/A,,Overcast,170,2013-02-17 14:54:00
9:13 AM,24.8,21.2,86,29.58,0.8,South,28.8,34.5,N/A,,Overcast,170,2013-02-17 15:13:00
9:34 AM,24.8,23.0,93,29.58,1.0,South,25.3,-,N/A,,Overcast,180,2013-02-17 15:34:00
9:54 AM,24.8,23.0,93,29.57,1.0,South,25.3,31.1,N/A,,Overcast,170,2013-02-17 15:54:00
10:13 AM,24.8,24.8,100,29.57,1.2,South,23.0,33.4,N/A,,Overcast,170,2013-02-17 16:13:00
10:34 AM,24.8,24.8,100,29.56,1.2,South,27.6,33.4,N/A,,Overcast,170,2013-02-17 16:34:00
10:54 AM,24.8,24.8,100,29.56,1.5,South,24.2,31.1,0.01,,Overcast,180,2013-02-17 16:54:00
11:13 AM,24.8,24.8,100,29.54,1.2,South,25.3,28.8,N/A,,Overcast,170,2013-02-17 17:13:00
11:34 AM,26.6,24.8,93,29.54,1.5,South,23.0,32.2,N/A,,Overcast,170,2013-02-17 17:34:00
11:54 AM,26.6,24.8,93,29.53,1.5,South,25.3,-,N/A,,Overcast,180,2013-02-17 17:54:00
12:14 PM,26.6,24.8,93,29.51,1.5,South,26.5,33.4,N/A,,Overcast,180,2013-02-17 18:14:00
12:33 PM,26.6,24.8,93,29.51,1.8,South,25.3,32.2,N/A,,Overcast,180,2013-02-17 18:33:00
12:54 PM,26.6,24.8,93,29.49,1.5,South,27.6,-,N/A,,Overcast,170,2013-02-17 18:54:00
1:14 PM,26.6,24.8,93,29.48,1.8,South,28.8,33.4,N/A,,Mostly Cloudy,170,2013-02-17 19:14:00
1:33 PM,26.6,24.8,93,29.50,3.0,South,20.7,-,N/A,,Mostly Cloudy,180,2013-02-17 19:33:00
1:54 PM,26.6,24.8,93,29.48,3.0,South,20.7,-,N/A,,Overcast,180,2013-02-17 19:54:00
2:14 PM,26.6,24.8,93,29.47,3.0,South,23.0,-,N/A,,Mostly Cloudy,170,2013-02-17 20:14:00
2:33 PM,26.6,24.8,93,29.46,2.5,South,24.2,27.6,N/A,,Scattered Clouds,180,2013-02-17 20:33:00
2:54 PM,26.6,24.8,93,29.45,2.0,South,26.5,-,N/A,,Clear,180,2013-02-17 20:54:00
3:14 PM,26.6,24.8,93,29.45,3.0,South,21.9,-,N/A,,Clear,180,2013-02-17 21:14:00
3:34 PM,26.6,24.8,93,29.44,4.0,South,20.7,-,N/A,,Clear,180,2013-02-17 21:34:00
3:54 PM,26.6,26.6,100,29.44,5.0,South,21.9,-,N/A,,Clear,180,2013-02-17 21:54:00
4:14 PM,26.6,26.6,100,29.45,4.0,South,20.7,-,N/A,,Clear,180,2013-02-17 22:14:00
4:34 PM,28.4,26.6,93,29.45,5.0,South,19.6,-,N/A,,Clear,180,2013-02-17 22:34:00
4:54 PM,28.4,26.6,93,29.45,5.0,South,19.6,-,N/A,,Scattered Clouds,180,2013-02-17 22:54:00
5:14 PM,26.6,26.6,100,29.46,5.0,South,19.6,-,N/A,,Scattered Clouds,180,2013-02-17 23:14:00
5:34 PM,26.6,26.6,100,29.46,5.0,South,18.4,-,N/A,,Mostly Cloudy,180,2013-02-17 23:34:00
5:54 PM,26.6,26.6,100,29.46,5.0,South,18.4,-,N/A,,Mostly Cloudy,180,2013-02-17 23:54:00
6:14 PM,26.6,26.6,100,29.46,7.0,South,16.1,-,N/A,,Overcast,180,2013-02-18 00:14:00
6:34 PM,26.6,26.6,100,29.47,7.0,South,15.0,-,N/A,,Overcast,180,2013-02-18 00:34:00
6:54 PM,28.4,26.6,93,29.48,7.0,South,15.0,-,N/A,,Overcast,180,2013-02-18 00:54:00
7:14 PM,28.4,26.6,93,29.48,7.0,South,17.3,-,N/A,,Mostly Cloudy,180,2013-02-18 01:14:00
7:34 PM,28.4,26.6,93,29.48,7.0,South,16.1,-,N/A,,Scattered Clouds,190,2013-02-18 01:34:00
7:54 PM,28.4,26.6,93,29.48,7.0,South,17.3,-,N/A,,Scattered Clouds,190,2013-02-18 01:54:00
8:14 PM,28.4,26.6,93,29.48,7.0,South,17.3,24.2,N/A,,Mostly Cloudy,190,2013-02-18 02:14:00
8:34 PM,28.4,26.6,93,29.48,5.0,South,16.1,-,N/A,,Overcast,190,2013-02-18 02:34:00
8:54 PM,28.4,26.6,93,29.48,5.0,South,15.0,-,N/A,,Overcast,190,2013-02-18 02:54:00
9:14 PM,28.4,26.6,93,29.48,2.0,SSW,13.8,-,N/A,Snow,Light Snow,200,2013-02-18 03:14:00
9:33 PM,28.4,28.4,100,29.49,0.5,SSW,10.4,-,N/A,Snow,Heavy Snow,200,2013-02-18 03:33:00
9:54 PM,28.4,28.4,100,29.49,0.5,SSW,8.1,-,0.01,Snow,Snow,200,2013-02-18 03:54:00
10:14 PM,28.4,28.4,100,29.49,0.8,SSW,5.8,-,0.02,Snow,Snow,200,2013-02-18 04:14:00
10:34 PM,28.4,28.4,100,29.49,0.8,SSW,3.5,-,0.03,Snow,Snow,210,2013-02-18 04:34:00
10:54 PM,28.4,28.4,100,29.49,1.5,North,6.9,-,0.04,Snow,Light Snow,350,2013-02-18 04:54:00
11:14 PM,28.4,26.6,93,29.49,2.5,NNW,8.1,-,N/A,Snow,Light Snow,340,2013-02-18 05:14:00
11:34 PM,26.6,26.6,100,29.49,1.5,North,12.7,-,0.01,Snow,Light Snow,350,2013-02-18 05:34:00
11:54 PM,26.6,26.6,100,29.49,2.0,North,12.7,-,0.01,Snow,Light Snow,360,2013-02-18 05:54:00